Regional Weather Roundup
Issued by NWS Raleigh/Durham, NC

Home | Current Version | Previous Version | Text Only | Print | Product List | Glossary On
Versions: 1 2 3 4 5 6 7 8 9 10 11 12 13 14 15 16 17 18 19 20 21 22 23 24 25 26 27 28 29 30 31 32 33 34 35 36 37 38 39 40 41 42 43 44 45 46 47 48 49 50
000
ASUS42 KRAH 251910
RWRRAH
NORTH CAROLINA WEATHER ROUNDUP
NATIONAL WEATHER SERVICE RALEIGH NC
200 PM EST SUN JAN 25 2015

NOTE: "FAIR" INDICATES FEW OR NO CLOUDS BELOW 12,000 FEET WITH NO
SIGNIFICANT WEATHER AND/OR OBSTRUCTIONS TO VISIBILITY.

NCZ001-053-055-056-065-067-252000-
WESTERN NORTH CAROLINA

CITY           SKY/WX    TMP DP  RH WIND       PRES   REMARKS
ASHEVILLE      SUNNY     54  27  35 S15       29.74F
JEFFERSON      MOSUNNY   47  24  40 SE7       29.74F
MORGANTON      MOSUNNY   55  29  36 SE6       29.82F
HICKORY        MOSUNNY   53  28  38 S10       29.79F
RUTHERFORDTON  SUNNY     55  28  36 S14G20    29.79F
MOUNT AIRY     SUNNY     52  30  43 S9        29.80F
BOONE          MOSUNNY   45  25  45 SW12      29.75F
$$

NCZ021-022-025-041-071-084-088-252000-
CENTRAL NORTH CAROLINA

CITY           SKY/WX    TMP DP  RH WIND       PRES   REMARKS
CHARLOTTE      MOSUNNY   56  28  34 S12       29.83F
GREENSBORO     PTSUNNY   52  31  44 S10       29.82F
WINSTON-SALEM  SUNNY     53  28  38 SW9       29.82F
RALEIGH-DURHAM MOSUNNY   54  33  45 S7        29.87F
FORT BRAGG     SUNNY     56  32  40 VRB6      29.87F
FAYETTEVILLE   SUNNY     56  32  40 S9        29.88F
BURLINGTON     SUNNY     54  31  41 S10       29.85F
LAURINBURG     SUNNY     55  35  47 S5        29.89F
$$

NCZ011-015-027-028-043-044-047-080-103-252000-
NORTHEASTERN NORTH CAROLINA

CITY           SKY/WX    TMP DP  RH WIND       PRES   REMARKS
ROCKY MT-WILSO SUNNY     53  34  48 SW8       29.90F
GREENVILLE     SUNNY     54  32  43 SW6       29.93F
WASHINGTON     SUNNY     51  31  46 W6        29.91F
ELIZABETH CITY SUNNY     50  32  50 S6        29.90F
MANTEO         SUNNY     46  34  61 S10       29.91F
CAPE HATTERAS  SUNNY     48  32  53 VRB5      29.93F
$$

NCZ078-087-090-091-093-098-101-252000-
SOUTHEASTERN NORTH CAROLINA

CITY           SKY/WX    TMP DP  RH WIND       PRES   REMARKS
LUMBERTON      SUNNY     54  36  50 S8        29.89F
GOLDSBORO      SUNNY     54  39  57 SW5       29.88F
KINSTON        SUNNY     54  32  43 CALM      29.91F
KENANSVILLE    SUNNY     53  31  42 CALM      29.92F
NEW BERN       SUNNY     55  32  41 SW6       29.93F
CHERRY POINT   SUNNY     54  30  40 W7        29.93F
BEAUFORT       SUNNY     49  37  63 S9        29.93F
JACKSONVILLE   SUNNY     54  31  41 CALM      29.91F
WILMINGTON     SUNNY     55  34  45 CALM      29.92F
$$



USA.gov is the U.S. government's official web portal to all federal, state and local government web resources and services.